This is the latest recevied weather packets stored in our database for station/object ac2ev. If no packets are shown the sender has not sent any weather packets the latest 10 day(s).
| Time | Temp. | Humidity | Pressure | Rain* | Wind** | Luminosity | Snow |
|---|---|---|---|---|---|---|---|
| 1776989403 | 12.22° C | 56% | 1012.6 hPa | 0 mm | - | - | - |
| 1776989102 | 12.22° C | 55% | 1012.6 hPa | 0 mm | - | - | - |
| 1776988803 | 12.22° C | 53% | 1012.5 hPa | 0 mm | - | - | - |
| 1776988503 | 12.22° C | 53% | 1012.6 hPa | 0 mm | - | - | - |
| 1776988203 | 12.22° C | 52% | 1012.6 hPa | 0 mm | - | - | - |
| 1776987949 | 12.22° C | 52% | 1012.5 hPa | 0 mm | - | - | - |
| 1776987605 | 12.22° C | 52% | 1012.6 hPa | 0 mm | - | - | - |
| 1776987350 | 12.22° C | 52% | 1012.7 hPa | 0 mm | - | - | - |
| 1776987005 | 12.22° C | 51% | 1012.7 hPa | 0 mm | - | - | - |
| 1776986703 | 12.22° C | 51% | 1012.8 hPa | 0 mm | - | - | - |
| 1776986403 | 12.22° C | 52% | 1012.8 hPa | 0 mm | - | - | - |
| 1776986102 | 12.78° C | 51% | 1012.8 hPa | 0 mm | - | - | - |
| 1776985800 | 12.78° C | 55% | 1012.8 hPa | 0 mm | - | - | - |
| 1776985493 | 12.78° C | 55% | 1012.8 hPa | 0 mm | - | - | - |
| 1776985189 | 12.78° C | 54% | 1012.7 hPa | 0 mm | - | - | - |
| 1776984888 | 12.78° C | 56% | 1012.8 hPa | 0 mm | - | - | - |
| 1776984586 | 12.78° C | 55% | 1012.7 hPa | 0 mm | - | - | - |
| 1776984286 | 12.22° C | 54% | 1012.8 hPa | 0 mm | - | - | - |
| 1776983986 | 12.78° C | 54% | 1012.6 hPa | 0 mm | - | - | - |
| 1776983684 | 12.78° C | 54% | 1012.7 hPa | 0 mm | - | - | - |
| 1776983381 | 12.78° C | 53% | 1012.8 hPa | 0 mm | - | - | - |
| 1776983082 | 12.78° C | 54% | 1012.7 hPa | 0 mm | - | - | - |
| 1776982781 | 12.78° C | 53% | 1012.8 hPa | 0 mm | - | - | - |
| 1776982480 | 12.78° C | 53% | 1012.8 hPa | 0 mm | - | - | - |
| 1776982178 | 12.78° C | 53% | 1012.8 hPa | 0 mm | - | - | - |
* Rain latest hour (hover to see other rain measurements)
** Current wind speed in m/s (hover to see current wind gust speed)